Inquirer Daily News

Weather

Get conditions and forecasts for any City, State, ZIP code or Country:  
Northeast Philadelphia, PA
on Wednesday, February 20, 2013

Wednesday
Previous Day Next Day
Daily Summary
 ActualAverage (KTTN)Record (KTTN)
Temperature
Mean Temperature °F 35°F  
Max Temperature 36°F 43°F 70°F (1930)
Min Temperature 25°F 27°F 6°F (1936)
Degree Days
Heating Degree Days 34 30  
Month to date heating degree days 635  
Since 1 July heating degree days 3581  
Cooling Degree Days 0 0  
Month to date cooling degree days 0  
Year to date cooling degree days 0  
Moisture
Dew Point 12°F   
Average Humidity 47    
Maximum Humidity 62    
Minimum Humidity 40    
Precipitation
Precipitation 0.00 in 0.09 in 1.70 in (1921)
Month to date precipitation 1.58  
Year to date precipitation 4.74  
Wind
Wind Speed 16 mph   
Max Wind Speed 22 mph   
Max Gust Speed 36 mph   
Visibility 10 miles   
Events     

Key: T is trace of precipitation, MM is missing value
Source: NWS Daily Summary
Time(EST)TemperatureDew PointHumidity Pressure Visibility Wind DirectionWind SpeedGust SpeedPrecipitationEvents Conditions
12:54 AM 36.0°F 24.1°F 62% 29.82 in 10.0 miles West 11.5 mph - N/A   Mostly Cloudy
1:54 AM 34.0°F 17.1°F 50% 29.83 in 10.0 miles WNW 19.6 mph 27.6 mph N/A   Partly Cloudy
2:54 AM 33.1°F 15.1°F 48% 29.83 in 10.0 miles WNW 16.1 mph 23.0 mph N/A   Clear
3:54 AM 32.0°F 15.8°F 51% 29.84 in 10.0 miles WNW 11.5 mph - N/A   Mostly Cloudy
4:54 AM 32.0°F 16.0°F 52% 29.86 in 10.0 miles WNW 19.6 mph 29.9 mph N/A   Overcast
5:54 AM 30.0°F 12.9°F 49% 29.89 in 10.0 miles WNW 12.7 mph 17.3 mph N/A   Clear
6:54 AM 28.4°F 15.8°F 59% 29.90 in 10.0 miles WNW 11.5 mph 23.0 mph N/A   Overcast
7:54 AM 30.0°F 15.1°F 54% 29.94 in 10.0 miles WNW 18.4 mph 27.6 mph N/A   Mostly Cloudy
8:54 AM 28.9°F 10.9°F 47% 29.96 in 10.0 miles WNW 21.9 mph 29.9 mph N/A   Overcast
9:54 AM 30.2°F 8.6°F 40% 29.96 in 10.0 miles WNW 19.6 mph 35.7 mph N/A   Partly Cloudy
10:54 AM 30.9°F 10.9°F 43% 29.95 in 10.0 miles NW 19.6 mph 25.3 mph N/A   Partly Cloudy
11:54 AM 30.9°F 10.0°F 42% 29.95 in 10.0 miles West 19.6 mph 27.6 mph N/A   Clear
12:54 PM 33.1°F 10.9°F 40% 29.93 in 10.0 miles WNW 21.9 mph 31.1 mph N/A   Scattered Clouds
1:54 PM 30.9°F 10.0°F 42% 29.94 in 10.0 miles NW 20.7 mph 29.9 mph N/A   Overcast
2:54 PM 30.0°F 9.0°F 41% 29.96 in 10.0 miles WNW 16.1 mph 29.9 mph N/A   Overcast
3:54 PM 30.9°F 9.0°F 40% 29.97 in 10.0 miles West 20.7 mph 29.9 mph N/A   Mostly Cloudy
4:54 PM 28.9°F 8.1°F 41% 29.99 in 10.0 miles WNW 18.4 mph 28.8 mph N/A   Partly Cloudy
5:54 PM 28.0°F 7.0°F 41% 30.02 in 10.0 miles WNW 17.3 mph 26.5 mph N/A   Clear
6:54 PM 28.0°F 8.1°F 43% 30.04 in 10.0 miles WNW 11.5 mph - N/A   Clear
7:54 PM 27.0°F 9.0°F 47% 30.04 in 10.0 miles WNW 18.4 mph 27.6 mph N/A   Clear
8:54 PM 26.1°F 9.0°F 49% 30.06 in 10.0 miles WNW 13.8 mph - N/A   Clear
9:54 PM 26.1°F 9.0°F 49% 30.06 in 10.0 miles WNW 12.7 mph 19.6 mph N/A   Clear
11:54 PM 25.0°F 8.1°F 49% 30.09 in 10.0 miles WNW 12.7 mph 18.4 mph N/A   Mostly Cloudy
Astronomy
Sunrise:06:46 AM (EST) Moon Rise:01:01 PM (EST)2/20
Sunset:05:41 PM (EST) Moon Set:03:04 AM (EST)2/20
Moon Phase
Feb. 20 Feb. 25 Mar. 04 Mar. 11 Mar. 19

Copyright © 2014 The Weather Underground, Inc.